Location: Les Moreaux
(47.2278°N, 1.4966°E)
Time: 15:39:21
(UTC+00:00)

Sich 1 - Pass Details

Date: 19 May 2025
Orbit: 574 x 603 km, 82.5° (Epoch: 18 June)

Event Time Altitude Azimuth Distance (km) Brightness Sun altitude
Rises 22:31:38 0° 357° (N) 2,835 7.8 -20.5°
Reaches altitude 10° 22:34:00 10° 6° (N) 1,924 6.5 -20.6°
Maximum altitude 22:37:57 37° 74° (ENE) 924 3.9 -20.8°
Enters shadow 22:38:35 34° 96° (E) 962 3.8 -20.9°
